Time,TemperatureF,DewpointF,PressureIn,WindDirection,WindDirectionDegrees,WindSpeedMPH,WindSpeedGustMPH,Humidity,HourlyPrecipIn,Conditions,Clouds,dailyrainin,SoftwareType,DateUTC
2013-07-27 07:24:00,58.8,53.6,29.90,SSW,211,7.0,0.0,83,0.00,,,0.00,WeatherTracker,2013-07-27 14:24:00,
2013-07-27 07:26:00,58.9,53.7,29.90,WSW,249,6.0,0.0,83,0.00,,,0.00,WeatherTracker,2013-07-27 14:26:00,
2013-07-27 07:28:00,58.9,53.7,29.90,SW,220,5.0,0.0,83,0.00,,,0.00,WeatherTracker,2013-07-27 14:28:00,
2013-07-27 07:33:00,59.1,53.6,29.90,SSW,203,2.0,0.0,82,0.00,,,0.00,WeatherTracker,2013-07-27 14:33:00,
2013-07-27 07:38:00,59.3,53.8,29.90,West,265,6.0,0.0,82,0.00,,,0.00,WeatherTracker,2013-07-27 14:38:00,
2013-07-27 07:43:00,59.5,54.0,29.90,West,272,9.0,0.0,82,0.00,,,0.00,WeatherTracker,2013-07-27 14:43:00,
2013-07-27 07:48:00,59.7,53.9,29.90,WSW,250,2.0,0.0,81,0.00,,,0.00,WeatherTracker,2013-07-27 14:48:00,
2013-07-27 07:53:00,59.9,54.1,29.90,West,261,3.0,0.0,81,0.00,,,0.00,WeatherTracker,2013-07-27 14:53:00,
2013-07-27 07:58:00,60.2,54.0,29.90,SSW,194,9.0,0.0,80,0.00,,,0.00,WeatherTracker,2013-07-27 14:58:00,
2013-07-27 08:03:00,60.5,54.3,29.90,SW,228,4.0,0.0,80,0.00,,,0.00,WeatherTracker,2013-07-27 15:03:00,
2013-07-27 08:08:00,60.9,54.3,29.90,West,264,5.0,0.0,79,0.00,,,0.00,WeatherTracker,2013-07-27 15:08:00,
2013-07-27 08:13:00,61.3,54.4,29.91,SW,231,8.0,0.0,78,0.00,,,0.00,WeatherTracker,2013-07-27 15:13:00,
2013-07-27 08:18:00,61.4,54.5,29.91,SW,232,6.0,0.0,78,0.00,,,0.00,WeatherTracker,2013-07-27 15:18:00,
2013-07-27 08:23:00,61.7,54.4,29.91,WSW,240,4.0,0.0,77,0.00,,,0.00,WeatherTracker,2013-07-27 15:23:00,
2013-07-27 08:28:00,62.0,54.7,29.91,SW,234,10.0,0.0,77,0.00,,,0.00,WeatherTracker,2013-07-27 15:28:00,
2013-07-27 08:33:00,62.5,54.8,29.91,SW,229,2.0,0.0,76,0.00,,,0.00,WeatherTracker,2013-07-27 15:33:00,
2013-07-27 08:38:00,62.9,54.8,29.91,SSE,167,6.0,0.0,75,0.00,,,0.00,WeatherTracker,2013-07-27 15:38:00,
2013-07-27 08:43:00,63.0,54.9,29.91,SSW,194,7.0,0.0,75,0.00,,,0.00,WeatherTracker,2013-07-27 15:43:00,
2013-07-27 08:48:00,63.0,54.6,29.91,West,260,3.0,0.0,74,0.00,,,0.00,WeatherTracker,2013-07-27 15:48:00,
2013-07-27 08:53:00,63.1,55.0,29.91,WSW,250,3.0,0.0,75,0.00,,,0.00,WeatherTracker,2013-07-27 15:53:00,
2013-07-27 08:58:00,63.5,55.1,29.91,SSW,198,2.0,0.0,74,0.00,,,0.00,WeatherTracker,2013-07-27 15:58:00,
2013-07-27 09:03:00,63.8,55.0,29.90,SW,236,11.0,0.0,73,0.00,,,0.00,WeatherTracker,2013-07-27 16:03:00,
2013-07-27 09:09:00,63.6,54.8,29.90,SW,219,7.0,0.0,73,0.00,,,0.00,WeatherTracker,2013-07-27 16:09:00,
2013-07-27 09:14:00,63.7,54.9,29.90,SW,225,7.0,0.0,73,0.00,,,0.00,WeatherTracker,2013-07-27 16:14:00,
2013-07-27 09:19:00,63.8,55.0,29.90,WSW,242,7.0,0.0,73,0.00,,,0.00,WeatherTracker,2013-07-27 16:19:00,
2013-07-27 09:24:00,64.0,54.8,29.90,SW,226,6.0,0.0,72,0.00,,,0.00,WeatherTracker,2013-07-27 16:24:00,
2013-07-27 09:29:00,64.1,54.9,29.90,SSW,201,7.0,0.0,72,0.00,,,0.00,WeatherTracker,2013-07-27 16:29:00,
2013-07-27 09:34:00,64.3,55.1,29.90,SSE,167,8.0,0.0,72,0.00,,,0.00,WeatherTracker,2013-07-27 16:34:00,
2013-07-27 09:39:00,64.4,54.8,29.90,SW,236,6.0,0.0,71,0.00,,,0.00,WeatherTracker,2013-07-27 16:39:00,
2013-07-27 09:44:00,64.6,55.0,29.90,WNW,298,5.0,0.0,71,0.00,,,0.00,WeatherTracker,2013-07-27 16:44:00,
2013-07-27 09:49:00,65.0,55.0,29.90,SW,232,10.0,0.0,70,0.00,,,0.00,WeatherTracker,2013-07-27 16:49:00,
2013-07-27 09:54:00,65.2,55.2,29.90,SSW,198,7.0,0.0,70,0.00,,,0.00,WeatherTracker,2013-07-27 16:54:00,
2013-07-27 09:59:00,65.4,55.0,29.90,WSW,252,9.0,0.0,69,0.00,,,0.00,WeatherTracker,2013-07-27 16:59:00,
2013-07-27 10:04:00,65.5,55.1,29.89,SW,235,5.0,0.0,69,0.00,,,0.00,WeatherTracker,2013-07-27 17:04:00,
2013-07-27 10:09:00,65.6,54.7,29.89,WSW,252,11.0,0.0,68,0.00,,,0.00,WeatherTracker,2013-07-27 17:09:00,
2013-07-27 10:14:00,65.5,55.4,29.90,SW,232,7.0,0.0,70,0.00,,,0.00,WeatherTracker,2013-07-27 17:14:00,
2013-07-27 10:20:00,65.9,55.0,29.90,South,187,5.0,0.0,68,0.00,,,0.00,WeatherTracker,2013-07-27 17:20:00,
2013-07-27 10:25:00,66.2,55.3,29.89,SW,227,7.0,0.0,68,0.00,,,0.00,WeatherTracker,2013-07-27 17:25:00,
2013-07-27 10:30:00,66.5,55.2,29.89,SW,223,5.0,0.0,67,0.00,,,0.00,WeatherTracker,2013-07-27 17:30:00,
2013-07-27 10:35:00,66.7,55.4,29.90,SSW,212,4.0,0.0,67,0.00,,,0.00,WeatherTracker,2013-07-27 17:35:00,
2013-07-27 10:40:00,67.2,55.0,29.89,SSW,199,5.0,0.0,65,0.00,,,0.00,WeatherTracker,2013-07-27 17:40:00,
2013-07-27 10:45:00,67.5,55.3,29.89,SSW,213,8.0,0.0,65,0.00,,,0.00,WeatherTracker,2013-07-27 17:45:00,
2013-07-27 10:50:00,67.7,55.1,29.89,SW,235,7.0,0.0,64,0.00,,,0.00,WeatherTracker,2013-07-27 17:50:00,
2013-07-27 10:55:00,68.1,55.0,29.89,WSW,250,6.0,0.0,63,0.00,,,0.00,WeatherTracker,2013-07-27 17:55:00,
2013-07-27 11:00:00,68.5,55.4,29.90,WSW,257,11.0,0.0,63,0.00,,,0.00,WeatherTracker,2013-07-27 18:00:00,
2013-07-27 11:05:00,68.6,55.5,29.89,SW,232,9.0,0.0,63,0.00,,,0.00,WeatherTracker,2013-07-27 18:05:00,
2013-07-27 11:10:00,68.8,55.2,29.89,West,268,11.0,0.0,62,0.00,,,0.00,WeatherTracker,2013-07-27 18:10:00,
2013-07-27 11:15:00,69.3,55.7,29.89,WSW,246,6.0,0.0,62,0.00,,,0.00,WeatherTracker,2013-07-27 18:15:00,
2013-07-27 11:20:00,69.9,55.8,29.89,SSW,200,6.0,0.0,61,0.00,,,0.00,WeatherTracker,2013-07-27 18:20:00,
2013-07-27 11:25:00,70.2,55.7,29.89,SW,231,2.0,0.0,60,0.00,,,0.00,WeatherTracker,2013-07-27 18:25:00,
2013-07-27 11:30:00,70.8,55.8,29.89,SW,232,3.0,0.0,59,0.00,,,0.00,WeatherTracker,2013-07-27 18:30:00,
2013-07-27 11:35:00,71.4,56.8,29.89,WSW,237,4.0,0.0,60,0.00,,,0.00,WeatherTracker,2013-07-27 18:35:00,
2013-07-27 11:40:00,72.0,56.4,29.89,SW,226,8.0,0.0,58,0.00,,,0.00,WeatherTracker,2013-07-27 18:40:00,
2013-07-27 11:45:00,72.7,56.6,29.89,WSW,238,5.0,0.0,57,0.00,,,0.00,WeatherTracker,2013-07-27 18:45:00,
2013-07-27 11:50:00,73.0,56.4,29.88,SSW,195,6.0,0.0,56,0.00,,,0.00,WeatherTracker,2013-07-27 18:50:00,
2013-07-27 11:55:00,73.2,56.5,29.88,South,189,3.0,0.0,56,0.00,,,0.00,WeatherTracker,2013-07-27 18:55:00,
2013-07-27 12:00:00,73.9,57.2,29.88,WSW,251,6.0,0.0,56,0.00,,,0.00,WeatherTracker,2013-07-27 19:00:00,
2013-07-27 12:05:00,74.4,56.7,29.88,SSW,210,4.0,0.0,54,0.00,,,0.00,WeatherTracker,2013-07-27 19:05:00,
2013-07-27 12:10:00,74.6,56.3,29.88,SW,215,9.0,0.0,53,0.00,,,0.00,WeatherTracker,2013-07-27 19:10:00,
2013-07-27 12:15:00,74.5,56.7,29.87,SSW,210,5.0,0.0,54,0.00,,,0.00,WeatherTracker,2013-07-27 19:15:00,
2013-07-27 12:20:00,74.7,56.9,29.87,WSW,243,7.0,0.0,54,0.00,,,0.00,WeatherTracker,2013-07-27 19:20:00,
2013-07-27 12:25:00,75.0,57.2,29.87,WNW,291,7.0,0.0,54,0.00,,,0.00,WeatherTracker,2013-07-27 19:25:00,
2013-07-27 12:31:00,75.2,56.9,29.87,WNW,288,9.0,0.0,53,0.00,,,0.00,WeatherTracker,2013-07-27 19:31:00,
2013-07-27 12:36:00,75.4,57.6,29.87,SW,229,6.0,0.0,54,0.00,,,0.00,WeatherTracker,2013-07-27 19:36:00,
2013-07-27 12:41:00,75.7,57.3,29.86,WSW,240,8.0,0.0,53,0.00,,,0.00,WeatherTracker,2013-07-27 19:41:00,
2013-07-27 12:46:00,76.2,57.3,29.86,WSW,245,10.0,0.0,52,0.00,,,0.00,WeatherTracker,2013-07-27 19:46:00,
2013-07-27 12:51:00,76.7,57.7,29.86,West,265,8.0,0.0,52,0.00,,,0.00,WeatherTracker,2013-07-27 19:51:00,
2013-07-27 12:56:00,77.4,57.8,29.86,WSW,248,5.0,0.0,51,0.00,,,0.00,WeatherTracker,2013-07-27 19:56:00,
2013-07-27 13:01:00,77.8,57.6,29.86,SW,216,7.0,0.0,50,0.00,,,0.00,WeatherTracker,2013-07-27 20:01:00,
2013-07-27 13:06:00,78.0,58.4,29.86,SSW,208,10.0,0.0,51,0.00,,,0.00,WeatherTracker,2013-07-27 20:06:00,
2013-07-27 13:11:00,78.2,58.0,29.85,NNW,329,5.0,0.0,50,0.00,,,0.00,WeatherTracker,2013-07-27 20:11:00,
2013-07-27 13:16:00,78.7,58.5,29.85,WSW,238,3.0,0.0,50,0.00,,,0.00,WeatherTracker,2013-07-27 20:16:00,
2013-07-27 13:21:00,79.3,59.0,29.85,South,180,11.0,0.0,50,0.00,,,0.00,WeatherTracker,2013-07-27 20:21:00,
2013-07-27 13:26:00,79.6,58.7,29.85,WSW,258,8.0,0.0,49,0.00,,,0.00,WeatherTracker,2013-07-27 20:26:00,
2013-07-27 13:31:00,79.9,58.4,29.85,SW,218,7.0,0.0,48,0.00,,,0.00,WeatherTracker,2013-07-27 20:31:00,
2013-07-27 13:36:00,80.1,58.6,29.84,South,173,4.0,0.0,48,0.00,,,0.00,WeatherTracker,2013-07-27 20:36:00,
2013-07-27 13:41:00,80.2,58.7,29.84,SW,221,10.0,0.0,48,0.00,,,0.00,WeatherTracker,2013-07-27 20:41:00,
2013-07-27 13:46:00,80.0,59.1,29.84,West,263,9.0,0.0,49,0.00,,,0.00,WeatherTracker,2013-07-27 20:46:00,
2013-07-27 13:51:00,80.1,58.6,29.84,SW,222,4.0,0.0,48,0.00,,,0.00,WeatherTracker,2013-07-27 20:51:00,
2013-07-27 13:56:00,80.3,58.8,29.84,WSW,241,10.0,0.0,48,0.00,,,0.00,WeatherTracker,2013-07-27 20:56:00,
2013-07-27 14:02:00,80.2,58.7,29.84,West,268,3.0,0.0,48,0.00,,,0.00,WeatherTracker,2013-07-27 21:02:00,
2013-07-27 14:07:00,80.3,58.8,29.84,SW,214,7.0,0.0,48,0.00,,,0.00,WeatherTracker,2013-07-27 21:07:00,
2013-07-27 14:12:00,80.5,59.0,29.83,SW,228,6.0,0.0,48,0.00,,,0.00,WeatherTracker,2013-07-27 21:12:00,
2013-07-27 14:17:00,80.3,58.8,29.83,SW,221,8.0,0.0,48,0.00,,,0.00,WeatherTracker,2013-07-27 21:17:00,
2013-07-27 14:22:00,80.5,59.6,29.83,SW,221,6.0,0.0,49,0.00,,,0.00,WeatherTracker,2013-07-27 21:22:00,
2013-07-27 14:27:00,81.1,58.9,29.82,SW,233,3.0,0.0,47,0.00,,,0.00,WeatherTracker,2013-07-27 21:27:00,
2013-07-27 14:32:00,81.2,59.0,29.82,WSW,240,6.0,0.0,47,0.00,,,0.00,WeatherTracker,2013-07-27 21:32:00,
2013-07-27 14:37:00,81.4,59.8,29.82,SW,233,5.0,0.0,48,0.00,,,0.00,WeatherTracker,2013-07-27 21:37:00,
2013-07-27 14:42:00,81.7,59.5,29.82,SW,221,3.0,0.0,47,0.00,,,0.00,WeatherTracker,2013-07-27 21:42:00,
2013-07-27 14:47:00,82.0,59.8,29.81,SSW,209,4.0,0.0,47,0.00,,,0.00,WeatherTracker,2013-07-27 21:47:00,
2013-07-27 14:52:00,82.3,59.4,29.81,SW,218,11.0,0.0,46,0.00,,,0.00,WeatherTracker,2013-07-27 21:52:00,
2013-07-27 14:57:00,82.5,59.0,29.81,WSW,254,6.0,0.0,45,0.00,,,0.00,WeatherTracker,2013-07-27 21:57:00,
2013-07-27 15:02:00,82.7,59.8,29.81,WSW,240,5.0,0.0,46,0.00,,,0.00,WeatherTracker,2013-07-27 22:02:00,
2013-07-27 15:07:00,83.1,59.5,29.80,West,276,6.0,0.0,45,0.00,,,0.00,WeatherTracker,2013-07-27 22:07:00,
2013-07-27 15:12:00,83.5,59.9,29.80,SW,227,5.0,0.0,45,0.00,,,0.00,WeatherTracker,2013-07-27 22:12:00,
2013-07-27 15:17:00,83.7,60.1,29.80,SW,225,7.0,0.0,45,0.00,,,0.00,WeatherTracker,2013-07-27 22:17:00,
2013-07-27 15:22:00,83.6,59.3,29.80,SSW,213,7.0,0.0,44,0.00,,,0.00,WeatherTracker,2013-07-27 22:22:00,
2013-07-27 15:27:00,83.1,59.5,29.80,NW,312,5.0,0.0,45,0.00,,,0.00,WeatherTracker,2013-07-27 22:27:00,
2013-07-27 15:32:00,83.4,59.8,29.79,SW,231,5.0,0.0,45,0.00,,,0.00,WeatherTracker,2013-07-27 22:32:00,
2013-07-27 15:37:00,84.2,59.9,29.79,WSW,240,6.0,0.0,44,0.00,,,0.00,WeatherTracker,2013-07-27 22:37:00,
2013-07-27 15:42:00,84.6,59.6,29.79,SW,223,4.0,0.0,43,0.00,,,0.00,WeatherTracker,2013-07-27 22:42:00,
2013-07-27 15:47:00,84.9,59.9,29.78,SW,215,3.0,0.0,43,0.00,,,0.00,WeatherTracker,2013-07-27 22:47:00,
2013-07-27 15:52:00,85.5,60.4,29.78,WSW,241,5.0,0.0,43,0.00,,,0.00,WeatherTracker,2013-07-27 22:52:00,
2013-07-27 15:57:00,85.9,60.1,29.78,WSW,252,7.0,0.0,42,0.00,,,0.00,WeatherTracker,2013-07-27 22:57:00,
2013-07-27 16:02:00,86.3,60.5,29.77,WNW,289,9.0,0.0,42,0.00,,,0.00,WeatherTracker,2013-07-27 23:02:00,